| time (UTC) | temp F | wind direction | speed MPH | gust MPH | rain 1hr in | rain 24hr in | rain mn in | humidity % | barometer mb |
| 20260506231012 | 60 | 163 | 0.0 | 6.0 | 0.07 | 0.31 | 0.31 | 94 | 1005.5 |
| 20260506230501 | 60 | 125 | 0.0 | 6.0 | 0.07 | 0.31 | 0.31 | 94 | 1005.6 |
| 20260506230012 | 60 | 116 | 0.0 | 4.0 | 0.05 | 0.29 | 0.29 | 94 | 1005.7 |
| 20260506225503 | 60 | 159 | 0.0 | 7.0 | 0.04 | 0.28 | 0.28 | 94 | 1005.8 |
| 20260506225003 | 60 | 116 | 0.0 | 7.0 | 0.04 | 0.27 | 0.27 | 94 | 1006.0 |
| 20260506224508 | 60 | 126 | 1.0 | 7.0 | 0.04 | 0.27 | 0.27 | 94 | 1006.0 |
| 20260506224004 | 60 | 199 | 0.0 | 7.0 | 0.04 | 0.26 | 0.26 | 93 | 1006.0 |
| 20260506223504 | 60 | 186 | 1.0 | 7.0 | 0.04 | 0.25 | 0.25 | 93 | 1006.0 |
| 20260506223006 | 60 | 165 | 0.0 | 8.0 | 0.04 | 0.25 | 0.25 | 93 | 1006.0 |
| 20260506222504 | 60 | 189 | 2.0 | 9.0 | 0.04 | 0.25 | 0.25 | 93 | 1005.9 |
| 20260506222006 | 60 | 193 | 0.0 | 9.0 | 0.05 | 0.25 | 0.25 | 93 | 1005.9 |
| 20260506221514 | 60 | 172 | 1.0 | 9.0 | 0.05 | 0.25 | 0.25 | 93 | 1006.0 |
| 20260506221003 | 60 | 198 | 1.0 | 9.0 | 0.04 | 0.24 | 0.24 | 93 | 1006.1 |
| 20260506220503 | 60 | 159 | 1.0 | 8.0 | 0.04 | 0.24 | 0.24 | 93 | 1006.1 |
| 20260506220017 | 60 | 157 | 0.0 | 7.0 | 0.05 | 0.24 | 0.24 | 93 | 1006.1 |
| 20260506215505 | 60 | 199 | 0.0 | 7.0 | 0.07 | 0.24 | 0.24 | 93 | 1006.1 |
| 20260506215003 | 60 | 221 | 2.0 | 8.0 | 0.07 | 0.23 | 0.23 | 93 | 1006.1 |
| 20260506214504 | 60 | 171 | 1.0 | 8.0 | 0.08 | 0.23 | 0.23 | 92 | 1006.2 |
| 20260506214004 | 61 | 210 | 1.0 | 10.0 | 0.08 | 0.22 | 0.22 | 92 | 1006.2 |
| 20260506213503 | 61 | 124 | 4.0 | 10.0 | 0.08 | 0.21 | 0.21 | 92 | 1006.1 |
| 20260506213006 | 61 | 157 | 3.0 | 9.0 | 0.09 | 0.21 | 0.21 | 92 | 1006.1 |
| 20260506212503 | 61 | 179 | 0.0 | 7.0 | 0.10 | 0.21 | 0.21 | 93 | 1006.1 |
| 20260506212003 | 61 | 157 | 1.0 | 13.0 | 0.09 | 0.20 | 0.20 | 92 | 1006.2 |
| 20260506211508 | 61 | 193 | 1.0 | 13.0 | 0.10 | 0.20 | 0.20 | 92 | 1006.3 |
| 20260506211003 | 61 | 210 | 1.0 | 9.0 | 0.11 | 0.20 | 0.20 | 92 | 1006.4 |
| 20260506210504 | 61 | 150 | 1.0 | 11.0 | 0.11 | 0.20 | 0.20 | 92 | 1006.5 |
| 20260506210014 | 61 | 200 | 0.0 | 11.0 | 0.11 | 0.19 | 0.19 | 92 | 1006.6 |
| 20260506205504 | 61 | 158 | 2.0 | 11.0 | 0.09 | 0.17 | 0.17 | 92 | 1006.6 |
| 20260506205004 | 61 | 179 | 0.0 | 9.0 | 0.08 | 0.16 | 0.16 | 91 | 1006.8 |
| 20260506204518 | 61 | 165 | 1.0 | 9.0 | 0.07 | 0.15 | 0.15 | 91 | 1006.7 |
| 20260506204008 | 62 | 212 | 1.0 | 8.0 | 0.06 | 0.14 | 0.14 | 91 | 1006.9 |
| 20260506203508 | 62 | 159 | 2.0 | 9.0 | 0.05 | 0.13 | 0.13 | 90 | 1006.8 |
| 20260506203004 | 62 | 172 | 2.0 | 9.0 | 0.04 | 0.12 | 0.12 | 90 | 1006.7 |
| 20260506202504 | 62 | 221 | 0.0 | 7.0 | 0.03 | 0.11 | 0.11 | 90 | 1006.7 |
| 20260506202004 | 63 | 134 | 1.0 | 9.0 | 0.03 | 0.11 | 0.11 | 89 | 1006.7 |
| 20260506201525 | 63 | 204 | 0.0 | 9.0 | 0.02 | 0.10 | 0.10 | 89 | 1006.7 |
| 20260506201004 | 63 | 201 | 0.0 | 8.0 | 0.02 | 0.09 | 0.09 | 89 | 1006.9 |
| 20260506200504 | 63 | 193 | 3.0 | 10.0 | 0.02 | 0.09 | 0.09 | 88 | 1006.9 |
| 20260506200009 | 63 | 120 | 1.0 | 10.0 | 0.01 | 0.08 | 0.08 | 88 | 1006.8 |
| 20260506195504 | 63 | 199 | 0.0 | 8.0 | 0.02 | 0.08 | 0.08 | 88 | 1006.9 |
| 20260506195007 | 63 | 191 | 0.0 | 8.0 | 0.02 | 0.08 | 0.08 | 88 | 1006.9 |
| 20260506194514 | 63 | 183 | 1.0 | 8.0 | 0.03 | 0.08 | 0.08 | 88 | 1006.9 |
| 20260506194009 | 63 | 180 | 2.0 | 8.0 | 0.04 | 0.08 | 0.08 | 88 | 1006.9 |
| 20260506193508 | 63 | 213 | 2.0 | 8.0 | 0.05 | 0.08 | 0.08 | 88 | 1006.8 |
| 20260506193025 | 64 | 128 | 1.0 | 5.0 | 0.05 | 0.08 | 0.08 | 89 | 1006.8 |
| 20260506192508 | 64 | 193 | 0.0 | 5.0 | 0.06 | 0.08 | 0.08 | 90 | 1006.8 |
| 20260506192010 | 64 | 148 | 0.0 | 3.0 | 0.06 | 0.08 | 0.08 | 90 | 1006.8 |
| 20260506191506 | 64 | 123 | 0.0 | 2.0 | 0.07 | 0.08 | 0.08 | 90 | 1006.9 |
| 20260506191004 | 64 | 190 | 0.0 | 2.0 | 0.06 | 0.07 | 0.07 | 89 | 1006.8 |
| 20260506190505 | 64 | 149 | 0.0 | 0.0 | 0.06 | 0.07 | 0.07 | 88 | 1006.7 |
| 20260506190012 | 64 | 164 | 0.0 | 0.0 | 0.07 | 0.07 | 0.07 | 88 | 1006.8 |
| 20260506185504 | 65 | 195 | 0.0 | 6.0 | 0.06 | 0.06 | 0.06 | 86 | 1007.0 |
| 20260506185004 | 65 | 198 | 0.0 | 6.0 | 0.06 | 0.06 | 0.06 | 85 | 1007.0 |
| 20260506184527 | 65 | 184 | 1.0 | 6.0 | 0.05 | 0.05 | 0.05 | 84 | 1007.0 |
| 20260506184005 | 66 | 161 | 0.0 | 4.0 | 0.04 | 0.04 | 0.04 | 83 | 1007.2 |
| 20260506183504 | 66 | 187 | 0.0 | 3.0 | 0.03 | 0.03 | 0.03 | 82 | 1007.0 |
| 20260506183018 | 67 | 210 | 0.0 | 5.0 | 0.03 | 0.03 | 0.03 | 80 | 1007.3 |
| 20260506182504 | 67 | 147 | 0.0 | 5.0 | 0.02 | 0.02 | 0.02 | 79 | 1007.3 |
| 20260506182009 | 68 | 203 | 0.0 | 6.0 | 0.02 | 0.02 | 0.02 | 76 | 1007.4 |
| 20260506181524 | 69 | 229 | 1.0 | 6.0 | 0.01 | 0.01 | 0.01 | 74 | 1007.5 |
| 20260506181009 | 69 | 36 | 0.0 | 2.0 | 0.01 | 0.01 | 0.01 | 73 | 1007.4 |
| 20260506180508 | 70 | 266 | 0.0 | 6.0 | 0.01 | 0.01 | 0.01 | 70 | 1007.5 |
| 20260506180031 | 70 | 237 | 0.0 | 6.0 | 0.00 | 0.00 | 0.00 | 68 | 1007.3 |
| 20260506175502 | 70 | 132 | 0.0 | 7.0 | 0.00 | 0.00 | 0.00 | 67 | 1007.3 |
| 20260506175003 | 70 | 181 | 1.0 | 7.0 | 0.00 | 0.00 | 0.00 | 66 | 1007.3 |
| 20260506174522 | 71 | 200 | 1.0 | 8.0 | 0.00 | 0.00 | 0.00 | 65 | 1007.3 |
| 20260506174003 | 72 | 209 | 2.0 | 11.0 | 0.00 | 0.00 | 0.00 | 63 | 1007.3 |
| 20260506173504 | 73 | 189 | 4.0 | 12.0 | 0.00 | 0.00 | 0.00 | 61 | 1007.3 |
| 20260506173016 | 73 | 175 | 1.0 | 16.0 | 0.00 | 0.00 | 0.00 | 58 | 1007.1 |
| 20260506172504 | 73 | 197 | 4.0 | 16.0 | 0.00 | 0.00 | 0.00 | 56 | 1007.0 |
| 20260506172004 | 74 | 135 | 2.0 | 10.0 | 0.00 | 0.00 | 0.00 | 56 | 1007.0 |
| 20260506171534 | 74 | 203 | 0.0 | 9.0 | 0.00 | 0.00 | 0.00 | 56 | 1007.0 |
| 20260506171005 | 74 | 176 | 0.0 | 10.0 | 0.00 | 0.00 | 0.00 | 57 | 1007.0 |
| 20260506170511 | 74 | 198 | 3.0 | 14.0 | 0.00 | 0.00 | 0.00 | 56 | 1007.1 |
| 20260506170025 | 74 | 210 | 2.0 | 14.0 | 0.00 | 0.00 | 0.00 | 56 | 1007.3 |
| 20260506165509 | 74 | 111 | 2.0 | 14.0 | 0.00 | 0.00 | 0.00 | 58 | 1007.3 |
| 20260506165009 | 73 | 113 | 1.0 | 14.0 | 0.00 | 0.00 | 0.00 | 59 | 1007.4 |
| 20260506164526 | 73 | 196 | 3.0 | 15.0 | 0.00 | 0.00 | 0.00 | 58 | 1007.4 |
| 20260506164005 | 73 | 172 | 4.0 | 15.0 | 0.00 | 0.00 | 0.00 | 59 | 1007.5 |
| 20260506163508 | 72 | 193 | 3.0 | 15.0 | 0.00 | 0.00 | 0.00 | 60 | 1007.5 |
| 20260506163014 | 72 | 156 | 6.0 | 12.0 | 0.00 | 0.00 | 0.00 | 60 | 1007.6 |
| 20260506162503 | 72 | 159 | 3.0 | 12.0 | 0.00 | 0.00 | 0.00 | 61 | 1007.9 |
| 20260506162007 | 72 | 177 | 4.0 | 12.0 | 0.00 | 0.00 | 0.00 | 61 | 1007.8 |
| 20260506161518 | 72 | 183 | 1.0 | 7.0 | 0.00 | 0.00 | 0.00 | 63 | 1007.9 |
| 20260506161007 | 71 | 271 | 1.0 | 6.0 | 0.00 | 0.00 | 0.00 | 64 | 1007.9 |
| 20260506160507 | 71 | 211 | 1.0 | 6.0 | 0.00 | 0.00 | 0.00 | 63 | 1008.0 |
| 20260506160022 | 71 | 176 | 2.0 | 6.0 | 0.00 | 0.00 | 0.00 | 63 | 1008.2 |
| 20260506155508 | 71 | 203 | 2.0 | 9.0 | 0.00 | 0.00 | 0.00 | 63 | 1008.2 |
| 20260506155007 | 70 | 169 | 1.0 | 9.0 | 0.00 | 0.00 | 0.00 | 64 | 1008.4 |
| 20260506154529 | 70 | 163 | 3.0 | 12.0 | 0.00 | 0.00 | 0.00 | 64 | 1008.5 |
| 20260506154009 | 70 | 157 | 1.0 | 12.0 | 0.00 | 0.00 | 0.00 | 64 | 1008.6 |
| 20260506153510 | 70 | 188 | 2.0 | 12.0 | 0.00 | 0.00 | 0.00 | 64 | 1008.7 |
| 20260506153027 | 70 | 145 | 2.0 | 11.0 | 0.00 | 0.00 | 0.00 | 64 | 1008.7 |
| 20260506152513 | 70 | 210 | 2.0 | 11.0 | 0.00 | 0.00 | 0.00 | 64 | 1008.9 |
| 20260506152004 | 70 | 172 | 5.0 | 11.0 | 0.00 | 0.00 | 0.00 | 64 | 1009.0 |
| 20260506151522 | 70 | 189 | 1.0 | 9.0 | 0.00 | 0.00 | 0.00 | 64 | 1009.0 |
| 20260506151004 | 70 | 231 | 1.0 | 9.0 | 0.00 | 0.00 | 0.00 | 65 | 1009.0 |
| 20260506150510 | 70 | 184 | 2.0 | 14.0 | 0.00 | 0.00 | 0.00 | 65 | 1009.1 |
| 20260506150022 | 70 | 178 | 4.0 | 14.0 | 0.00 | 0.00 | 0.00 | 64 | 1008.9 |
| 20260506145506 | 70 | 169 | 1.0 | 13.0 | 0.00 | 0.00 | 0.00 | 65 | 1008.9 |
| 20260506145007 | 70 | 184 | 3.0 | 10.0 | 0.00 | 0.00 | 0.00 | 66 | 1009.0 |
| 20260506144525 | 70 | 69 | 1.0 | 13.0 | 0.00 | 0.00 | 0.00 | 66 | 1009.1 |
| 20260506144009 | 70 | 96 | 3.0 | 13.0 | 0.00 | 0.00 | 0.00 | 66 | 1009.1 |
| 20260506143504 | 70 | 194 | 5.0 | 11.0 | 0.00 | 0.00 | 0.00 | 66 | 1009.0 |
| 20260506143008 | 69 | 136 | 3.0 | 10.0 | 0.00 | 0.00 | 0.00 | 67 | 1009.0 |
| 20260506142507 | 69 | 167 | 3.0 | 10.0 | 0.00 | 0.00 | 0.00 | 67 | 1008.9 |
| 20260506142005 | 69 | 167 | 1.0 | 13.0 | 0.00 | 0.00 | 0.00 | 67 | 1009.0 |
| 20260506141512 | 69 | 153 | 3.0 | 15.0 | 0.00 | 0.00 | 0.00 | 67 | 1009.0 |
| 20260506141004 | 69 | 191 | 2.0 | 15.0 | 0.00 | 0.00 | 0.00 | 68 | 1008.7 |
| 20260506140504 | 69 | 111 | 2.0 | 13.0 | 0.00 | 0.00 | 0.00 | 69 | 1008.7 |
| 20260506140021 | 68 | 160 | 2.0 | 15.0 | 0.00 | 0.00 | 0.00 | 70 | 1008.7 |
| 20260506135506 | 68 | 200 | 1.0 | 15.0 | 0.00 | 0.00 | 0.00 | 70 | 1008.8 |
| 20260506135005 | 68 | 115 | 3.0 | 15.0 | 0.00 | 0.00 | 0.00 | 71 | 1008.9 |
| 20260506134522 | 67 | 206 | 2.0 | 9.0 | 0.00 | 0.00 | 0.00 | 71 | 1008.8 |
| 20260506134007 | 67 | 196 | 2.0 | 10.0 | 0.00 | 0.00 | 0.00 | 72 | 1008.9 |
| 20260506133510 | 67 | 196 | 2.0 | 10.0 | 0.00 | 0.00 | 0.00 | 71 | 1009.0 |
| 20260506133030 | 67 | 122 | 1.0 | 14.0 | 0.00 | 0.00 | 0.00 | 72 | 1009.0 |
| 20260506132507 | 67 | 214 | 4.0 | 14.0 | 0.00 | 0.00 | 0.00 | 71 | 1009.2 |
| 20260506132011 | 67 | 184 | 1.0 | 10.0 | 0.00 | 0.00 | 0.00 | 73 | 1009.5 |
| 20260506131508 | 66 | 193 | 1.0 | 14.0 | 0.00 | 0.00 | 0.00 | 73 | 1009.5 |
| 20260506131004 | 66 | 217 | 1.0 | 14.0 | 0.00 | 0.00 | 0.00 | 73 | 1009.6 |
| 20260506130505 | 66 | 197 | 3.0 | 14.0 | 0.00 | 0.00 | 0.00 | 73 | 1009.6 |
| 20260506130018 | 66 | 166 | 1.0 | 13.0 | 0.00 | 0.00 | 0.00 | 73 | 1009.5 |
| 20260506125505 | 66 | 221 | 3.0 | 13.0 | 0.00 | 0.00 | 0.00 | 73 | 1009.5 |
| 20260506125010 | 66 | 233 | 2.0 | 13.0 | 0.00 | 0.00 | 0.00 | 73 | 1009.5 |
| 20260506124522 | 65 | 197 | 3.0 | 13.0 | 0.00 | 0.00 | 0.00 | 73 | 1009.6 |
| 20260506124005 | 65 | 206 | 2.0 | 13.0 | 0.00 | 0.00 | 0.00 | 74 | 1009.6 |
| 20260506123506 | 65 | 156 | 3.0 | 10.0 | 0.00 | 0.00 | 0.00 | 75 | 1009.4 |
| 20260506123024 | 65 | 209 | 2.0 | 9.0 | 0.00 | 0.00 | 0.00 | 76 | 1009.2 |
| 20260506122508 | 64 | 187 | 2.0 | 9.0 | 0.00 | 0.00 | 0.00 | 76 | 1009.2 |
| 20260506122014 | 64 | 155 | 1.0 | 9.0 | 0.00 | 0.00 | 0.00 | 76 | 1009.2 |
| 20260506121527 | 64 | 182 | 0.0 | 11.0 | 0.00 | 0.00 | 0.00 | 76 | 1009.4 |
| 20260506121007 | 64 | 200 | 2.0 | 11.0 | 0.00 | 0.00 | 0.00 | 76 | 1009.6 |
| 20260506120508 | 64 | 172 | 2.0 | 11.0 | 0.00 | 0.00 | 0.00 | 76 | 1009.6 |
| 20260506120010 | 63 | 163 | 2.0 | 10.0 | 0.00 | 0.00 | 0.00 | 77 | 1009.6 |
| 20260506115504 | 63 | 198 | 1.0 | 10.0 | 0.00 | 0.00 | 0.00 | 78 | 1009.4 |
| 20260506115005 | 63 | 158 | 2.0 | 9.0 | 0.00 | 0.00 | 0.00 | 78 | 1009.6 |
| 20260506114531 | 63 | 145 | 2.0 | 10.0 | 0.00 | 0.00 | 0.00 | 78 | 1009.6 |
| 20260506114006 | 62 | 119 | 1.0 | 10.0 | 0.00 | 0.00 | 0.00 | 78 | 1009.7 |
| 20260506113505 | 62 | 207 | 1.0 | 8.0 | 0.00 | 0.00 | 0.00 | 78 | 1009.8 |
| 20260506113022 | 62 | 165 | 0.0 | 13.0 | 0.00 | 0.00 | 0.00 | 78 | 1009.8 |
| 20260506112510 | 62 | 172 | 2.0 | 13.0 | 0.00 | 0.00 | 0.00 | 78 | 1009.8 |
| 20260506112007 | 62 | 181 | 0.0 | 10.0 | 0.00 | 0.00 | 0.00 | 78 | 1009.9 |
| 20260506111523 | 62 | 134 | 1.0 | 6.0 | 0.00 | 0.00 | 0.00 | 78 | 1009.9 |
| 20260506111010 | 62 | 147 | 0.0 | 9.0 | 0.00 | 0.00 | 0.00 | 78 | 1009.9 |
| 20260506110512 | 62 | 191 | 0.0 | 9.0 | 0.00 | 0.00 | 0.00 | 79 | 1009.9 |
| 20260506110032 | 61 | 202 | 1.0 | 9.0 | 0.00 | 0.00 | 0.00 | 79 | 1009.7 |
| 20260506105513 | 61 | 113 | 0.0 | 7.0 | 0.00 | 0.00 | 0.00 | 79 | 1009.7 |
| 20260506105008 | 61 | 167 | 0.0 | 6.0 | 0.00 | 0.00 | 0.00 | 79 | 1009.8 |
| 20260506104525 | 61 | 176 | 0.0 | 6.0 | 0.00 | 0.00 | 0.00 | 79 | 1010.0 |
| 20260506104005 | 61 | 165 | 0.0 | 8.0 | 0.00 | 0.00 | 0.00 | 79 | 1009.9 |
| 20260506103509 | 61 | 195 | 1.0 | 8.0 | 0.00 | 0.00 | 0.00 | 79 | 1009.9 |
| 20260506103018 | 61 | 143 | 1.0 | 10.0 | 0.00 | 0.00 | 0.00 | 79 | 1009.8 |
| 20260506102506 | 61 | 181 | 1.0 | 10.0 | 0.00 | 0.00 | 0.00 | 79 | 1009.7 |
| 20260506102007 | 61 | 153 | 1.0 | 9.0 | 0.00 | 0.00 | 0.00 | 79 | 1009.6 |
| 20260506101524 | 61 | 174 | 0.0 | 9.0 | 0.00 | 0.00 | 0.00 | 78 | 1009.5 |
| 20260506101007 | 61 | 203 | 0.0 | 7.0 | 0.00 | 0.00 | 0.00 | 78 | 1009.7 |
| 20260506100507 | 61 | 189 | 0.0 | 7.0 | 0.00 | 0.00 | 0.00 | 78 | 1009.7 |
| 20260506100026 | 61 | 203 | 0.0 | 7.0 | 0.00 | 0.00 | 0.00 | 78 | 1009.7 |
| 20260506095508 | 61 | 154 | 0.0 | 9.0 | 0.00 | 0.00 | 0.00 | 78 | 1009.7 |
| 20260506095012 | 61 | 135 | 1.0 | 9.0 | 0.00 | 0.00 | 0.00 | 78 | 1009.6 |
| 20260506094526 | 61 | 200 | 2.0 | 9.0 | 0.00 | 0.00 | 0.00 | 78 | 1009.6 |
| 20260506094008 | 61 | 131 | 0.0 | 8.0 | 0.00 | 0.00 | 0.00 | 78 | 1009.5 |
| 20260506093509 | 61 | 176 | 1.0 | 8.0 | 0.00 | 0.00 | 0.00 | 77 | 1009.5 |
| 20260506093028 | 61 | 182 | 0.0 | 6.0 | 0.00 | 0.00 | 0.00 | 77 | 1009.4 |
| 20260506092507 | 61 | 177 | 0.0 | 5.0 | 0.00 | 0.00 | 0.00 | 77 | 1009.4 |
| 20260506092006 | 61 | 170 | 0.0 | 5.0 | 0.00 | 0.00 | 0.00 | 77 | 1009.6 |
| 20260506091522 | 61 | 167 | 0.0 | 8.0 | 0.00 | 0.00 | 0.00 | 77 | 1009.6 |
| 20260506091006 | 61 | 136 | 1.0 | 8.0 | 0.00 | 0.00 | 0.00 | 77 | 1009.5 |
| 20260506090507 | 61 | 205 | 0.0 | 8.0 | 0.00 | 0.00 | 0.00 | 76 | 1009.5 |
| 20260506090025 | 61 | 200 | 0.0 | 8.0 | 0.00 | 0.00 | 0.00 | 76 | 1009.6 |
| 20260506085506 | 62 | 155 | 1.0 | 9.0 | 0.00 | 0.00 | 0.00 | 76 | 1009.5 |
| 20260506085007 | 62 | 162 | 0.0 | 9.0 | 0.00 | 0.00 | 0.00 | 76 | 1009.5 |
| 20260506084526 | 62 | 195 | 0.0 | 8.0 | 0.00 | 0.00 | 0.00 | 76 | 1009.5 |
| 20260506084005 | 62 | 167 | 1.0 | 8.0 | 0.00 | 0.00 | 0.00 | 75 | 1009.5 |
| 20260506083505 | 62 | 186 | 0.0 | 6.0 | 0.00 | 0.00 | 0.00 | 75 | 1009.6 |
| 20260506083014 | 62 | 186 | 0.0 | 5.0 | 0.00 | 0.00 | 0.00 | 75 | 1009.6 |
| 20260506082503 | 62 | 189 | 1.0 | 5.0 | 0.00 | 0.00 | 0.00 | 74 | 1009.5 |
| 20260506082006 | 62 | 120 | 0.0 | 7.0 | 0.00 | 0.00 | 0.00 | 74 | 1009.5 |
| 20260506081518 | 62 | 178 | 0.0 | 7.0 | 0.00 | 0.00 | 0.00 | 74 | 1009.5 |
| 20260506081007 | 63 | 220 | 1.0 | 6.0 | 0.00 | 0.00 | 0.00 | 74 | 1009.4 |
| 20260506080505 | 63 | 207 | 1.0 | 10.0 | 0.00 | 0.00 | 0.00 | 73 | 1009.5 |
| 20260506073504 | 63 | 197 | 1.0 | 10.0 | 0.00 | 0.00 | 0.00 | 71 | 1009.5 |
| 20260506073008 | 63 | 216 | 0.0 | 9.0 | 0.00 | 0.00 | 0.00 | 71 | 1009.4 |
| 20260506072505 | 63 | 189 | 1.0 | 11.0 | 0.00 | 0.00 | 0.00 | 71 | 1009.4 |
| 20260506072008 | 63 | 134 | 1.0 | 11.0 | 0.00 | 0.00 | 0.00 | 71 | 1009.3 |
| 20260506071515 | 63 | 181 | 1.0 | 12.0 | 0.00 | 0.00 | 0.00 | 70 | 1009.2 |
| 20260506071010 | 63 | 194 | 2.0 | 12.0 | 0.00 | 0.00 | 0.00 | 70 | 1009.2 |
| 20260506070508 | 64 | 164 | 0.0 | 7.0 | 0.00 | 0.00 | 0.00 | 70 | 1009.2 |
| 20260506062504 | 64 | 127 | 2.0 | 10.0 | 0.00 | 0.00 | 0.00 | 67 | 1009.1 |
| 20260506062007 | 64 | 207 | 1.0 | 9.0 | 0.00 | 0.00 | 0.00 | 66 | 1009.2 |
| 20260506061512 | 64 | 185 | 1.0 | 13.0 | 0.00 | 0.00 | 0.00 | 66 | 1009.1 |
| 20260506061004 | 64 | 166 | 2.0 | 13.0 | 0.00 | 0.00 | 0.00 | 66 | 1009.0 |
| 20260506060505 | 65 | 136 | 2.0 | 10.0 | 0.00 | 0.00 | 0.00 | 66 | 1009.0 |
| 20260506051008 | 64 | 192 | 2.0 | 6.0 | 0.00 | 0.00 | 0.00 | 66 | 1009.3 |
| 20260506050505 | 64 | 150 | 0.0 | 6.0 | 0.00 | 0.00 | 0.00 | 66 | 1009.4 |
| 20260506045004 | 64 | 174 | 0.0 | 5.0 | 0.00 | 0.00 | 0.00 | 65 | 1009.5 |
| 20260506044527 | 64 | 161 | 1.0 | 8.0 | 0.00 | 0.00 | 0.00 | 65 | 1009.6 |
| 20260506044003 | 64 | 150 | 0.0 | 8.0 | 0.00 | 0.00 | 0.00 | 65 | 1009.7 |
| 20260506043508 | 64 | 125 | 0.0 | 6.0 | 0.00 | 0.00 | 0.00 | 64 | 1009.6 |
| 20260506043026 | 64 | 148 | 0.0 | 6.0 | 0.00 | 0.00 | 0.00 | 64 | 1009.6 |
| 20260506042512 | 65 | 137 | 0.0 | 6.0 | 0.00 | 0.00 | 0.00 | 64 | 1009.5 |
| 20260506042007 | 65 | 179 | 0.0 | 4.0 | 0.00 | 0.00 | 0.00 | 63 | 1009.5 |
| 20260506041526 | 65 | 184 | 0.0 | 5.0 | 0.00 | 0.00 | 0.00 | 63 | 1009.5 |
| 20260506041007 | 65 | 186 | 0.0 | 5.0 | 0.00 | 0.00 | 0.00 | 63 | 1009.5 |
| 20260506040513 | 65 | 124 | 0.0 | 5.0 | 0.00 | 0.00 | 0.00 | 63 | 1009.5 |
| 20260506040026 | 65 | 160 | 0.0 | 6.0 | 0.00 | 0.00 | 0.00 | 62 | 1009.6 |
| 20260506035504 | 65 | 168 | 2.0 | 6.0 | 0.00 | 0.00 | 0.00 | 62 | 1009.5 |
| 20260506035004 | 65 | 138 | 1.0 | 6.0 | 0.00 | 0.00 | 0.00 | 62 | 1009.5 |
| 20260506034513 | 65 | 104 | 0.0 | 8.0 | 0.00 | 0.00 | 0.00 | 61 | 1009.4 |
| 20260506034008 | 66 | 237 | 2.0 | 8.0 | 0.00 | 0.00 | 0.00 | 61 | 1009.4 |
| 20260506033507 | 66 | 198 | 1.0 | 12.0 | 0.00 | 0.00 | 0.00 | 61 | 1009.4 |
| 20260506033028 | 66 | 177 | 3.0 | 12.0 | 0.00 | 0.00 | 0.00 | 61 | 1009.4 |
| 20260506032508 | 66 | 167 | 2.0 | 12.0 | 0.00 | 0.00 | 0.00 | 60 | 1009.5 |
| 20260506032008 | 66 | 169 | 1.0 | 7.0 | 0.00 | 0.00 | 0.00 | 60 | 1009.4 |
| 20260506031531 | 66 | 185 | 0.0 | 7.0 | 0.00 | 0.00 | 0.00 | 60 | 1009.5 |
| 20260506031008 | 67 | 172 | 0.0 | 9.0 | 0.00 | 0.00 | 0.00 | 59 | 1009.5 |
| 20260506030511 | 67 | 198 | 1.0 | 9.0 | 0.00 | 0.00 | 0.00 | 59 | 1009.5 |
| 20260506030049 | 67 | 186 | 1.0 | 12.0 | 0.00 | 0.00 | 0.00 | 59 | 1009.6 |
| 20260506025510 | 67 | 195 | 1.0 | 12.0 | 0.00 | 0.00 | 0.00 | 59 | 1009.6 |
| 20260506025008 | 67 | 167 | 1.0 | 11.0 | 0.00 | 0.00 | 0.00 | 59 | 1009.5 |
| 20260506024531 | 68 | 186 | 1.0 | 11.0 | 0.00 | 0.00 | 0.00 | 58 | 1009.5 |
| 20260506024002 | 68 | 170 | 1.0 | 8.0 | 0.00 | 0.00 | 0.00 | 58 | 1009.4 |
| 20260506023502 | 68 | 182 | 2.0 | 10.0 | 0.00 | 0.00 | 0.00 | 58 | 1009.3 |
| 20260506023002 | 68 | 148 | 0.0 | 10.0 | 0.00 | 0.00 | 0.00 | 57 | 1009.4 |
| 20260506022503 | 68 | 212 | 1.0 | 8.0 | 0.00 | 0.00 | 0.00 | 57 | 1009.3 |
| 20260506022003 | 69 | 188 | 1.0 | 7.0 | 0.00 | 0.00 | 0.00 | 56 | 1009.3 |
| 20260506021504 | 69 | 169 | 0.0 | 6.0 | 0.00 | 0.00 | 0.00 | 56 | 1009.4 |
| 20260506021003 | 69 | 172 | 0.0 | 6.0 | 0.00 | 0.00 | 0.00 | 56 | 1009.4 |
| 20260506020505 | 69 | 153 | 1.0 | 7.0 | 0.00 | 0.00 | 0.00 | 55 | 1009.4 |
| 20260506020004 | 70 | 181 | 0.0 | 7.0 | 0.00 | 0.00 | 0.00 | 55 | 1009.4 |
| 20260506015504 | 70 | 203 | 0.0 | 6.0 | 0.00 | 0.00 | 0.00 | 54 | 1009.3 |
| 20260506015007 | 70 | 172 | 0.0 | 5.0 | 0.00 | 0.00 | 0.00 | 54 | 1009.3 |
| 20260506014503 | 70 | 189 | 0.0 | 8.0 | 0.00 | 0.00 | 0.00 | 53 | 1009.2 |
| 20260506014003 | 71 | 184 | 0.0 | 8.0 | 0.00 | 0.00 | 0.00 | 53 | 1009.3 |
| 20260506013501 | 71 | 165 | 0.0 | 2.0 | 0.00 | 0.00 | 0.00 | 52 | 1009.3 |
| 20260506013003 | 71 | 122 | 0.0 | 6.0 | 0.00 | 0.00 | 0.00 | 52 | 1009.2 |
| 20260506012502 | 71 | 191 | 0.0 | 6.0 | 0.00 | 0.00 | 0.00 | 51 | 1009.2 |
| 20260506012004 | 71 | 180 | 0.0 | 8.0 | 0.00 | 0.00 | 0.00 | 51 | 1009.1 |
| 20260506011504 | 71 | 117 | 0.0 | 8.0 | 0.00 | 0.00 | 0.00 | 51 | 1009.1 |
| 20260506011006 | 72 | 203 | 0.0 | 7.0 | 0.00 | 0.00 | 0.00 | 51 | 1009.1 |
| 20260506010503 | 72 | 160 | 0.0 | 4.0 | 0.00 | 0.00 | 0.00 | 51 | 1009.1 |
| 20260506010006 | 72 | 176 | 0.0 | 0.0 | 0.00 | 0.00 | 0.00 | 50 | 1009.2 |
| 20260506005505 | 72 | 212 | 0.0 | 3.0 | 0.00 | 0.00 | 0.00 | 50 | 1009.0 |
| 20260506005004 | 72 | 184 | 0.0 | 7.0 | 0.00 | 0.00 | 0.00 | 50 | 1008.8 |
| 20260506004517 | 72 | 217 | 2.0 | 9.0 | 0.00 | 0.00 | 0.00 | 49 | 1008.7 |
| 20260506004004 | 72 | 205 | 3.0 | 9.0 | 0.00 | 0.00 | 0.00 | 49 | 1008.5 |
| 20260506003504 | 73 | 170 | 3.0 | 9.0 | 0.00 | 0.00 | 0.00 | 49 | 1008.3 |
| 20260506003004 | 73 | 186 | 2.0 | 8.0 | 0.00 | 0.00 | 0.00 | 49 | 1008.2 |
| 20260506002505 | 73 | 56 | 1.0 | 15.0 | 0.00 | 0.00 | 0.00 | 49 | 1008.0 |
| 20260506002005 | 73 | 142 | 1.0 | 15.0 | 0.00 | 0.00 | 0.00 | 49 | 1007.8 |
| 20260506001504 | 73 | 192 | 2.0 | 12.0 | 0.00 | 0.00 | 0.00 | 48 | 1007.6 |
| 20260506001002 | 73 | 135 | 2.0 | 14.0 | 0.00 | 0.00 | 0.00 | 48 | 1007.5 |
| 20260506000504 | 74 | 140 | 1.0 | 14.0 | 0.00 | 0.00 | 0.00 | 48 | 1007.5 |
| 20260506000006 | 74 | 167 | 2.0 | 14.0 | 0.00 | 0.00 | 0.00 | 48 | 1007.5 |
| 20260505235503 | 74 | 190 | 1.0 | 11.0 | 0.00 | 0.00 | 0.00 | 47 | 1007.3 |
| 20260505235003 | 75 | 200 | 2.0 | 12.0 | 0.00 | 0.00 | 0.00 | 47 | 1007.3 |
| 20260505234503 | 75 | 134 | 2.0 | 14.0 | 0.00 | 0.00 | 0.00 | 46 | 1007.2 |
| 20260505234001 | 75 | 179 | 3.0 | 14.0 | 0.00 | 0.00 | 0.00 | 46 | 1007.1 |
| 20260505233505 | 76 | 101 | 2.0 | 15.0 | 0.00 | 0.00 | 0.00 | 46 | 1007.0 |
| 20260505233006 | 76 | 183 | 3.0 | 15.0 | 0.00 | 0.00 | 0.00 | 45 | 1006.9 |
| 20260505232503 | 76 | 170 | 2.0 | 15.0 | 0.00 | 0.00 | 0.00 | 45 | 1006.8 |
| 20260505232003 | 76 | 189 | 1.0 | 15.0 | 0.00 | 0.00 | 0.00 | 44 | 1006.7 |
| 20260505231505 | 77 | 193 | 4.0 | 14.0 | 0.00 | 0.00 | 0.00 | 44 | 1006.6 |